Date String (YYYY-MM-DD hh:mm:ss) UTC,Instrument flags,Ambient pressure (hPa),Sample flow (lpm),Bypass flow (lpm),Sample temperature (°C),Ambient temperature (°C),ASC tube jacket temperature (°C),LED temperature (°C),Box temperature (°C),Sample RH (%),Span deviation,Mass concentration (μg/m³),Mass concentration (μg/m³),Mass concentration (μg/m³)
DateTimeUTC,F1_M11,P_M11,Q1_M11,Q2_M11,T1_M11,T2_M11,T3_M11,T4_M11,T5_M11,U1_M11,ZSPAN_M11,X0_M11,X2_M11,X1_M11
2022-12-27 15:00:00,,0816.8,5.00,0.00,22.1,21.0,00.0,30.8,23.9,12.6,0000.0,0001.23,0001.06,0001.01
2022-12-27 15:01:00,,0816.8,5.03,0.00,22.1,21.0,00.0,30.9,23.9,12.5,0000.0,0000.94,0000.79,0000.75
2022-12-27 15:02:00,,0816.8,4.98,0.00,22.1,21.0,00.0,30.9,23.9,12.5,0000.0,0000.72,0000.58,0000.53
2022-12-27 15:03:00,,0816.8,4.97,0.00,22.1,21.0,00.0,30.9,23.9,12.5,0000.0,0000.60,0000.47,0000.42
2022-12-27 15:04:00,,0817.1,4.97,0.00,22.1,21.1,00.0,30.9,23.9,12.8,0000.0,0000.50,0000.37,0000.32
2022-12-27 15:05:00,,0817.1,4.99,0.00,22.1,21.1,00.0,30.9,23.9,13.1,0000.0,0000.42,0000.30,0000.25
2022-12-27 15:06:00,,0816.8,5.01,0.00,22.2,21.1,00.0,30.9,23.9,13.3,0000.0,0000.41,0000.29,0000.24
2022-12-27 15:07:00,,0816.9,5.03,0.00,22.2,21.1,00.0,30.9,23.9,13.1,0000.0,0000.40,0000.28,0000.23
2022-12-27 15:08:00,,0816.8,5.00,0.00,22.2,21.1,00.0,31.0,23.9,13.0,0000.0,0000.36,0000.25,0000.20
2022-12-27 15:09:00,,0816.9,4.97,0.00,22.2,21.1,00.0,31.0,24.0,13.0,0000.0,0000.34,0000.23,0000.19
2022-12-27 15:10:00,,0816.6,4.98,0.00,22.2,21.1,00.0,31.0,24.1,13.5,0000.0,0000.29,0000.22,0000.18
2022-12-27 15:11:00,,0816.6,4.98,0.00,22.2,21.1,00.0,31.0,24.1,13.7,0000.0,0000.31,0000.23,0000.19
2022-12-27 15:12:00,,0816.9,5.02,0.00,22.2,21.1,00.0,31.0,24.1,13.7,0000.0,0000.35,0000.27,0000.23
2022-12-27 15:13:00,,0816.7,5.03,0.00,22.2,21.1,00.0,31.0,24.1,12.9,0000.0,0000.34,0000.28,0000.24
2022-12-27 15:14:00,,0816.5,5.00,0.00,22.2,21.1,00.0,31.0,24.1,12.9,0000.0,0000.35,0000.29,0000.26
2022-12-27 15:15:00,,0816.4,4.97,0.00,22.2,21.2,00.0,31.0,24.1,12.5,0000.0,0000.35,0000.29,0000.25
2022-12-27 15:16:00,,0816.5,4.98,0.00,22.2,21.2,00.0,31.0,24.1,12.5,0000.0,0000.35,0000.29,0000.25
2022-12-27 15:17:00,,0816.5,5.00,0.00,22.3,21.2,00.0,31.1,24.1,12.9,0000.0,0000.46,0000.30,0000.26
2022-12-27 15:18:00,,0816.5,5.04,0.00,22.3,21.2,00.0,31.1,24.1,12.8,0000.0,0001.77,0000.33,0000.27
2022-12-27 15:19:00,,0816.5,4.99,0.00,22.3,21.3,00.0,31.1,24.2,13.5,0000.0,0001.81,0000.36,0000.31
2022-12-27 15:20:00,,0816.5,4.98,0.00,22.3,21.3,00.0,31.1,24.2,13.1,0000.0,0001.85,0000.40,0000.34
2022-12-27 15:21:00,,0816.5,4.97,0.00,22.3,21.3,00.0,31.1,24.2,12.7,0000.0,0001.90,0000.41,0000.35
2022-12-27 15:22:00,,0816.6,4.99,0.00,22.3,21.3,00.0,31.1,24.2,13.0,0000.0,0001.88,0000.40,0000.35
2022-12-27 15:23:00,,0816.7,5.00,0.00,22.4,21.3,00.0,31.1,24.2,13.4,0000.0,0001.88,0000.40,0000.36
2022-12-27 15:24:00,,0816.5,5.02,0.00,22.4,21.4,00.0,31.2,24.3,13.9,0000.0,0001.93,0000.45,0000.40
2022-12-27 15:25:00,,0816.5,5.00,0.00,22.4,21.4,00.0,31.2,24.3,13.8,0000.0,0002.02,0000.54,0000.49
2022-12-27 15:26:00,,0816.5,4.97,0.00,22.4,21.4,00.0,31.2,24.3,13.4,0000.0,0002.19,0000.67,0000.60
2022-12-27 15:27:00,,0816.5,4.99,0.00,22.4,21.4,00.0,31.2,24.2,13.1,0000.0,0002.34,0000.75,0000.67
2022-12-27 15:28:00,,0816.6,5.04,0.00,22.4,21.4,00.0,31.2,24.3,13.6,0000.0,0002.46,0000.86,0000.77
2022-12-27 15:29:00,,0816.7,5.02,0.00,22.5,21.4,00.0,31.2,24.3,13.4,0000.0,0001.35,0000.96,0000.85
2022-12-27 15:30:00,,0816.6,5.00,0.00,22.5,21.4,00.0,31.2,24.3,13.3,0000.0,0001.37,0001.01,0000.89
2022-12-27 15:31:00,,0816.4,4.98,0.00,22.5,21.4,00.0,31.2,24.3,13.0,0000.0,0001.37,0001.00,0000.88
2022-12-27 15:32:00,,0816.4,4.97,0.00,22.5,21.5,00.0,31.3,24.3,13.0,0000.0,0001.31,0000.99,0000.88
2022-12-27 15:33:00,,0816.4,5.02,0.00,22.5,21.5,00.0,31.3,24.4,12.5,0000.0,0001.33,0000.98,0000.86
2022-12-27 15:34:00,,0816.4,5.04,0.00,22.5,21.5,00.0,31.3,24.3,12.3,0000.0,0001.28,0000.93,0000.82
2022-12-27 15:35:00,,0816.3,4.99,0.00,22.5,21.5,00.0,31.3,24.4,12.4,0000.0,0001.20,0000.86,0000.75
2022-12-27 15:36:00,,0816.3,4.98,0.00,22.5,21.5,00.0,31.3,24.4,12.1,0000.0,0001.20,0000.76,0000.64
2022-12-27 15:37:00,,0816.3,4.98,0.00,22.5,21.5,00.0,31.3,24.4,12.2,0000.0,0001.04,0000.63,0000.53
2022-12-27 15:38:00,,0816.4,5.02,0.00,22.6,21.4,00.0,31.3,24.3,11.9,0000.0,0000.88,0000.54,0000.45
2022-12-27 15:39:00,,0816.4,5.02,0.00,22.6,21.5,00.0,31.3,24.3,12.0,0000.0,0000.72,0000.42,0000.35
2022-12-27 15:40:00,,0816.4,4.98,0.00,22.6,21.5,00.0,31.4,24.3,11.9,0000.0,0000.53,0000.29,0000.24
2022-12-27 15:41:00,,0816.3,4.97,0.00,22.6,21.5,00.0,31.4,24.4,11.9,0000.0,0000.40,0000.21,0000.18
2022-12-27 15:42:00,,0816.3,4.97,0.00,22.6,21.5,00.0,31.4,24.4,11.8,0000.0,0000.36,0000.17,0000.14
2022-12-27 15:43:00,,0816.1,5.01,0.00,22.6,21.5,00.0,31.4,24.4,11.7,0000.0,0000.33,0000.16,0000.13
2022-12-27 15:44:00,,0816.1,5.04,0.00,22.6,21.5,00.0,31.4,24.4,11.6,0000.0,0000.34,0000.15,0000.12
2022-12-27 15:45:00,,0816.1,5.02,0.00,22.6,21.5,00.0,31.4,24.3,11.6,0000.0,0000.36,0000.16,0000.12
2022-12-27 15:46:00,,0816.1,4.98,0.00,22.6,21.5,00.0,31.4,24.3,11.6,0000.0,0000.36,0000.16,0000.11
2022-12-27 15:47:00,,0816.0,4.98,0.00,22.6,21.5,00.0,31.4,24.4,11.5,0000.0,0000.29,0000.16,0000.12
2022-12-27 15:48:00,,0816.1,5.01,0.00,22.7,21.6,00.0,31.4,24.4,11.7,0000.0,0000.33,0000.17,0000.11
2022-12-27 15:49:00,,0816.1,5.02,0.00,22.7,21.6,00.0,31.4,24.5,12.1,0000.0,0000.37,0000.19,0000.12
2022-12-27 15:50:00,,0816.1,5.01,0.00,22.7,21.6,00.0,31.5,24.6,11.8,0000.0,0000.43,0000.20,0000.11
2022-12-27 15:51:00,,0816.0,4.98,0.00,22.7,21.6,00.0,31.5,24.6,11.8,0000.0,0000.44,0000.21,0000.11
2022-12-27 15:52:00,,0816.0,4.98,0.00,22.7,21.6,00.0,31.5,24.6,12.6,0000.0,0000.47,0000.24,0000.13
2022-12-27 15:53:00,,0816.0,5.01,0.00,22.7,21.7,00.0,31.5,24.6,13.8,0000.0,0000.69,0000.40,0000.27
2022-12-27 15:54:00,,0816.0,5.03,0.00,22.8,21.7,00.0,31.5,24.7,13.5,0000.0,0000.84,0000.51,0000.37
2022-12-27 15:55:00,,0816.1,5.01,0.00,22.8,21.7,00.0,31.5,24.7,13.3,0000.0,0000.88,0000.56,0000.43
2022-12-27 15:56:00,,0816.1,4.98,0.00,22.8,21.7,00.0,31.5,24.6,13.1,0000.0,0000.88,0000.58,0000.45
2022-12-27 15:57:00,,0815.9,5.00,0.00,22.8,21.7,00.0,31.5,24.6,12.7,0000.0,0000.89,0000.59,0000.46
2022-12-27 15:58:00,,0815.9,5.03,0.00,22.8,21.7,00.0,31.6,24.7,12.6,0000.0,0000.86,0000.58,0000.47
2022-12-27 15:59:00,,0815.9,5.02,0.00,22.8,21.7,00.0,31.6,24.7,13.1,0000.0,0000.84,0000.59,0000.48
